| time (UTC) | temp F | wind direction | speed knots | gust knots | rain 1hr in | rain 24hr in | rain mn in | humidity % | barometer mb |
| 20260510153019 | 74 | 70 | 0.9 | 3.5 | 0.00 | 0.84 | 0.00 | 85 | 1017.7 |
| 20260510151504 | 73 | 70 | 0.9 | 4.3 | 0.00 | 0.88 | 0.00 | 89 | 1017.5 |
| 20260510150008 | 71 | 70 | 0.0 | 5.2 | 0.00 | 0.93 | 0.00 | 94 | 1017.6 |
| 20260510144523 | 69 | 70 | 1.7 | 5.2 | 0.00 | 0.97 | 0.00 | 96 | 1017.5 |
| 20260510143033 | 68 | 70 | 1.7 | 3.5 | 0.00 | 1.02 | 0.00 | 96 | 1017.6 |
| 20260510141518 | 67 | 70 | 1.7 | 2.6 | 0.00 | 1.08 | 0.00 | 97 | 1017.6 |
| 20260510140005 | 67 | 70 | 1.7 | 5.2 | 0.00 | 1.16 | 0.00 | 97 | 1017.5 |
| 20260510134509 | 66 | 70 | 1.7 | 5.2 | 0.00 | 1.37 | 0.00 | 97 | 1017.7 |
| 20260510133011 | 66 | 70 | 2.6 | 4.3 | 0.00 | 1.45 | 0.00 | 97 | 1017.4 |
| 20260510131518 | 66 | 70 | 1.7 | 4.3 | 0.00 | 1.51 | 0.00 | 97 | 1017.3 |
| 20260510130020 | 66 | 70 | 0.9 | 3.5 | 0.00 | 1.55 | 0.00 | 97 | 1017.1 |
| 20260510124526 | 65 | 70 | 2.6 | 3.5 | 0.00 | 1.62 | 0.00 | 97 | 1016.9 |
| 20260510123019 | 65 | 70 | 0.9 | 3.5 | 0.00 | 1.73 | 0.00 | 97 | 1016.6 |
| 20260510121512 | 64 | 70 | 0.9 | 1.7 | 0.00 | 2.19 | 0.00 | 97 | 1016.2 |
| 20260510120022 | 64 | 70 | 0.0 | 0.9 | 0.00 | 3.51 | 0.00 | 97 | 1016.1 |
| 20260510114524 | 64 | 70 | 0.0 | 0.0 | 0.00 | 3.65 | 0.00 | 97 | 1015.9 |
| 20260510113024 | 64 | 70 | 0.0 | 0.0 | 0.00 | 3.66 | 0.00 | 97 | 1015.5 |
| 20260510111510 | 63 | 70 | 0.0 | 0.0 | 0.00 | 3.66 | 0.00 | 97 | 1015.1 |
| 20260510110030 | 64 | 70 | 0.0 | 0.0 | 0.00 | 3.66 | 0.00 | 97 | 1014.6 |
| 20260510104520 | 64 | 70 | 0.0 | 0.0 | 0.00 | 3.66 | 0.00 | 97 | 1014.4 |
| 20260510103023 | 64 | 70 | 0.0 | 0.0 | 0.00 | 3.66 | 0.00 | 97 | 1014.3 |
| 20260510101526 | 64 | 70 | 0.0 | 0.9 | 0.00 | 3.66 | 0.00 | 97 | 1014.1 |
| 20260510100015 | 64 | 70 | 0.0 | 0.9 | 0.00 | 3.66 | 0.00 | 97 | 1013.9 |
| 20260510091526 | 64 | 70 | 0.0 | 1.7 | 0.00 | 3.66 | 0.00 | 97 | 1013.9 |
| 20260510090025 | 65 | 70 | 0.9 | 1.7 | 0.00 | 3.66 | 0.00 | 97 | 1013.9 |
| 20260510081525 | 65 | 70 | 0.0 | 0.0 | 0.00 | 3.69 | 0.00 | 97 | 1013.8 |
| 20260510080026 | 65 | 70 | 0.0 | 0.0 | 0.00 | 3.70 | 0.00 | 97 | 1013.7 |
| 20260510074525 | 65 | 70 | 0.0 | 0.0 | 0.00 | 3.71 | 0.00 | 97 | 1013.7 |
| 20260510073017 | 65 | 70 | 0.0 | 0.0 | 0.00 | 3.71 | 0.00 | 97 | 1013.4 |
| 20260510071520 | 65 | 70 | 0.0 | 0.0 | 0.00 | 3.73 | 0.00 | 97 | 1013.3 |
| 20260510070030 | 65 | 70 | 0.0 | 0.0 | 0.00 | 3.74 | 0.00 | 97 | 1013.2 |
| 20260510064527 | 65 | 70 | 0.0 | 0.0 | 0.00 | 3.74 | 0.00 | 97 | 1013.6 |
| 20260510063030 | 65 | 70 | 0.0 | 0.0 | 0.00 | 3.74 | 0.00 | 97 | 1013.6 |
| 20260510061517 | 66 | 70 | 0.0 | 0.0 | 0.00 | 3.74 | 0.00 | 97 | 1013.6 |
| 20260510060018 | 66 | 70 | 0.0 | 0.0 | 0.00 | 3.74 | 0.00 | 97 | 1013.7 |
| 20260510054522 | 66 | 70 | 0.0 | 0.0 | 0.00 | 3.75 | 0.00 | 97 | 1013.9 |
| 20260510053046 | 66 | 70 | 0.0 | 0.0 | 0.00 | 3.76 | 0.00 | 97 | 1013.7 |
| 20260510051529 | 66 | 70 | 0.0 | 0.0 | 0.00 | 3.78 | 0.00 | 97 | 1013.8 |
| 20260510050019 | 66 | 70 | 0.0 | 1.7 | 0.00 | 3.81 | 0.00 | 97 | 1013.7 |
| 20260510044523 | 66 | 70 | 0.0 | 0.0 | 0.00 | 3.82 | 3.81 | 97 | 1013.8 |
| 20260510043039 | 66 | 70 | 0.0 | 0.9 | 0.00 | 3.83 | 3.81 | 97 | 1013.6 |
| 20260510041528 | 66 | 70 | 0.9 | 0.9 | 0.00 | 3.83 | 3.81 | 97 | 1013.5 |
| 20260510040035 | 66 | 70 | 0.9 | 0.9 | 0.00 | 3.83 | 3.81 | 97 | 1013.7 |
| 20260510034519 | 66 | 70 | 0.9 | 1.7 | 0.00 | 3.83 | 3.81 | 97 | 1013.5 |
| 20260510033022 | 66 | 70 | 0.9 | 3.5 | 0.00 | 3.83 | 3.81 | 97 | 1013.8 |
| 20260510031527 | 66 | 70 | 0.0 | 1.7 | 0.00 | 3.83 | 3.81 | 97 | 1014.1 |
| 20260510030028 | 67 | 70 | 0.9 | 1.7 | 0.00 | 3.83 | 3.81 | 97 | 1014.2 |
| 20260510024511 | 67 | 70 | 0.0 | 0.0 | 0.00 | 3.83 | 3.81 | 97 | 1014.1 |
| 20260510023014 | 66 | 70 | 0.0 | 0.0 | 0.00 | 3.83 | 3.81 | 97 | 1013.6 |
| 20260510020008 | 66 | 70 | 0.9 | 1.7 | 0.00 | 3.83 | 3.81 | 97 | 1013.4 |
| 20260510014513 | 67 | 70 | 0.0 | 2.6 | 0.01 | 3.83 | 3.81 | 97 | 1013.7 |
| 20260510013022 | 67 | 70 | 0.0 | 0.0 | 0.03 | 3.83 | 3.81 | 97 | 1013.5 |
| 20260510011514 | 67 | 70 | 0.0 | 3.5 | 0.04 | 3.83 | 3.81 | 97 | 1013.2 |
| 20260510004514 | 66 | 70 | 3.5 | 7.0 | 0.04 | 3.83 | 3.80 | 97 | 1011.9 |
| 20260510003015 | 66 | 70 | 2.6 | 5.2 | 0.04 | 3.82 | 3.78 | 97 | 1012.9 |
| 20260510001518 | 66 | 70 | 0.9 | 5.2 | 0.05 | 3.83 | 3.77 | 97 | 1012.3 |
| 20260510000023 | 66 | 70 | 0.9 | 1.7 | 0.07 | 3.84 | 3.77 | 96 | 1012.8 |
| 20260509234508 | 66 | 70 | 0.9 | 3.5 | 0.08 | 3.83 | 3.76 | 96 | 1012.9 |
| 20260509233012 | 66 | 70 | 1.7 | 4.3 | 0.07 | 3.81 | 3.74 | 96 | 1012.7 |
| 20260509231519 | 66 | 70 | 1.7 | 2.6 | 0.09 | 3.79 | 3.72 | 96 | 1012.5 |
| 20260509230018 | 66 | 70 | 0.0 | 2.6 | 0.10 | 3.77 | 3.70 | 96 | 1012.7 |
| 20260509224507 | 66 | 70 | 0.0 | 1.7 | 0.10 | 3.77 | 3.68 | 96 | 1012.5 |
| 20260509223011 | 66 | 70 | 0.0 | 0.0 | 0.09 | 3.82 | 3.67 | 96 | 1012.2 |
| 20260509221513 | 66 | 70 | 0.0 | 3.5 | 0.06 | 3.84 | 3.63 | 96 | 1012.8 |
| 20260509220020 | 66 | 70 | 1.7 | 2.6 | 0.04 | 3.87 | 3.60 | 96 | 1012.5 |
| 20260509214519 | 66 | 70 | 0.9 | 4.3 | 0.03 | 3.88 | 3.58 | 96 | 1012.1 |
| 20260509213008 | 66 | 70 | 1.7 | 1.7 | 0.05 | 3.90 | 3.58 | 96 | 1011.9 |
| 20260509211511 | 66 | 70 | 0.9 | 2.6 | 0.07 | 3.94 | 3.57 | 96 | 1011.9 |
| 20260509210016 | 66 | 70 | 1.7 | 3.5 | 0.09 | 3.98 | 3.56 | 96 | 1011.1 |
| 20260509204518 | 66 | 70 | 2.6 | 7.8 | 0.16 | 4.04 | 3.55 | 96 | 1011.4 |
| 20260509203025 | 65 | 70 | 0.9 | 7.0 | 0.20 | 4.08 | 3.53 | 96 | 1012.6 |
| 20260509201524 | 65 | 70 | 3.5 | 10.4 | 0.24 | 4.09 | 3.50 | 96 | 1011.1 |
| 20260509200022 | 65 | 70 | 2.6 | 6.1 | 0.29 | 4.13 | 3.47 | 96 | 1013.2 |
| 20260509194516 | 65 | 70 | 1.7 | 4.3 | 0.27 | 4.23 | 3.39 | 96 | 1013.4 |
| 20260509193027 | 65 | 70 | 0.9 | 4.3 | 0.23 | 4.37 | 3.33 | 96 | 1013.0 |
| 20260509191538 | 65 | 70 | 2.6 | 3.5 | 0.16 | 4.67 | 3.26 | 96 | 1012.8 |
| 20260509190030 | 65 | 70 | 0.0 | 4.3 | 0.08 | 4.96 | 3.18 | 96 | 1013.3 |
| 20260509184535 | 65 | 70 | 2.6 | 5.2 | 0.02 | 5.25 | 3.12 | 96 | 1013.0 |
| 20260509183027 | 65 | 70 | 1.7 | 3.5 | 0.01 | 5.40 | 3.10 | 96 | 1013.1 |
| 20260509181520 | 65 | 70 | 0.0 | 1.7 | 0.01 | 5.56 | 3.10 | 96 | 1013.0 |
| 20260509180023 | 65 | 70 | 1.7 | 6.1 | 0.01 | 5.65 | 3.10 | 96 | 1013.2 |
| 20260509174520 | 65 | 70 | 1.7 | 5.2 | 0.02 | 5.83 | 3.10 | 96 | 1012.8 |
| 20260509173014 | 65 | 70 | 1.7 | 5.2 | 0.01 | 5.85 | 3.09 | 96 | 1013.3 |
| 20260509171520 | 65 | 70 | 1.7 | 7.8 | 0.01 | 5.85 | 3.09 | 96 | 1013.1 |
| 20260509170024 | 64 | 70 | 2.6 | 5.2 | 0.03 | 5.85 | 3.09 | 96 | 1013.5 |
| 20260509164508 | 64 | 70 | 0.9 | 7.0 | 0.04 | 5.84 | 3.08 | 96 | 1013.1 |
| 20260509163022 | 64 | 70 | 1.7 | 7.8 | 0.11 | 5.84 | 3.08 | 96 | 1013.1 |
| 20260509161517 | 64 | 70 | 4.3 | 10.4 | 0.15 | 5.84 | 3.08 | 96 | 1013.4 |
| 20260509160022 | 64 | 70 | 3.5 | 9.6 | 0.18 | 5.82 | 3.06 | 96 | 1013.4 |
| 20260509154525 | 64 | 70 | 0.9 | 7.0 | 0.20 | 5.80 | 3.04 | 96 | 1013.9 |